FDX1 EDDP-EDDK

Flight info

Callsign FDX1
Flight time 0h 45m
Altitude 36000
Route ORTAG5N ORTAG Q230 KUMER DCT TOLTA DCT PODER Z189 RUNER T858 KOPAG KOPAG1G
Aircraft B738/M-SDE2E3FGHIRWXY/LB1

Departure

Time 2026-05-04 19:15
Airport Leipzig/Halle Airport (EDDP)

Arrival

Time 2026-05-04 20:00
Airport Cologne Bonn Airport (EDDK)
Time Latitude Longitude Altitude Speed Heading
2026-05-04 18:49 51.40927 12.23069 467 ft 0 kts 265°
2026-05-04 19:06 51.40927 12.23070 467 ft 1 kts 266°
2026-05-04 19:07 51.40930 12.23129 462 ft 9 kts 265°
2026-05-04 19:07 51.40930 12.23162 462 ft 2 kts 280°
2026-05-04 19:07 51.40926 12.23181 465 ft 0 kts 321°
2026-05-04 19:07 51.40919 12.23190 466 ft 0 kts 343°
2026-05-04 19:08 51.40917 12.23192 466 ft 1 kts 347°
2026-05-04 19:08 51.40921 12.23190 466 ft 0 kts 347°
2026-05-04 19:09 51.40927 12.23188 467 ft 4 kts 347°
2026-05-04 19:09 51.40983 12.23177 469 ft 11 kts
2026-05-04 19:09 51.41031 12.23251 469 ft 10 kts 81°
2026-05-04 19:10 51.41042 12.23364 469 ft 10 kts 81°
2026-05-04 19:10 51.41045 12.23473 468 ft 10 kts 94°
2026-05-04 19:10 51.41048 12.23580 470 ft 10 kts 85°
2026-05-04 19:10 51.41054 12.23685 470 ft 9 kts 85°
2026-05-04 19:11 51.41060 12.23791 465 ft 10 kts 86°
2026-05-04 19:11 51.41064 12.23926 465 ft 14 kts 84°
2026-05-04 19:11 51.41071 12.24094 465 ft 16 kts 85°
2026-05-04 19:11 51.41080 12.24275 465 ft 17 kts 85°
2026-05-04 19:12 51.41089 12.24474 465 ft 18 kts 85°
2026-05-04 19:12 51.41108 12.24858 471 ft 17 kts 85°
2026-05-04 19:12 51.41116 12.25040 474 ft 16 kts 85°
2026-05-04 19:13 51.41124 12.25215 474 ft 15 kts 85°
2026-05-04 19:13 51.41132 12.25380 469 ft 15 kts 85°
2026-05-04 19:13 51.41206 12.25450 473 ft 15 kts 357°
2026-05-04 19:13 51.41277 12.25425 469 ft 0 kts 332°
2026-05-04 19:14 51.41284 12.25418 470 ft 4 kts 331°
2026-05-04 19:14 51.41341 12.25350 470 ft 16 kts 317°
2026-05-04 19:14 51.41382 12.25178 470 ft 18 kts 268°
2026-05-04 19:14 51.41372 12.24971 468 ft 30 kts 266°
2026-05-04 19:15 51.41332 12.24112 468 ft 125 kts 266°
2026-05-04 19:15 51.41252 12.22328 673 ft 188 kts 266°
2026-05-04 19:15 51.41155 12.20092 1536 ft 203 kts 268°
2026-05-04 19:15 51.41094 12.17951 3079 ft 181 kts 270°
2026-05-04 19:16 51.41094 12.16029 4276 ft 176 kts 271°
2026-05-04 19:16 51.41082 12.13917 4760 ft 205 kts 264°
2026-05-04 19:16 51.40909 12.11492 5006 ft 232 kts 263°
2026-05-04 19:16 51.40720 12.08880 5535 ft 242 kts 263°
2026-05-04 19:17 51.40543 12.06169 6244 ft 245 kts 263°
2026-05-04 19:17 51.40384 12.03447 6760 ft 250 kts 263°
2026-05-04 19:17 51.40226 12.00552 6923 ft 267 kts 263°
2026-05-04 19:17 51.40073 11.97617 7121 ft 265 kts 263°
2026-05-04 19:18 51.39922 11.94660 7647 ft 268 kts 263°
2026-05-04 19:18 51.39769 11.91651 8164 ft 273 kts 263°
2026-05-04 19:18 51.39617 11.88609 8679 ft 274 kts 263°
2026-05-04 19:18 51.39466 11.85559 9204 ft 275 kts 263°
2026-05-04 19:19 51.39316 11.82535 9734 ft 275 kts 263°
2026-05-04 19:19 51.39161 11.79468 10219 ft 276 kts 263°
2026-05-04 19:19 51.39005 11.76382 10708 ft 278 kts 263°
2026-05-04 19:19 51.38855 11.73280 11236 ft 280 kts 265°
2026-05-04 19:20 51.39087 11.70152 11811 ft 288 kts 281°
2026-05-04 19:20 51.39582 11.67019 12412 ft 297 kts 282°
2026-05-04 19:20 51.40110 11.63804 13148 ft 298 kts 282°
2026-05-04 19:20 51.40638 11.60570 13906 ft 301 kts 282°
2026-05-04 19:21 51.41163 11.57301 14608 ft 303 kts 282°
2026-05-04 19:21 51.41683 11.54019 15316 ft 305 kts 281°
2026-05-04 19:21 51.42196 11.50743 16033 ft 306 kts 281°
2026-05-04 19:21 51.42716 11.47392 16787 ft 307 kts 281°
2026-05-04 19:22 51.43227 11.44079 17543 ft 311 kts 281°
2026-05-04 19:22 51.43748 11.40685 18319 ft 314 kts 281°
2026-05-04 19:22 51.44275 11.37236 18792 ft 320 kts 281°
2026-05-04 19:22 51.44805 11.33763 18971 ft 323 kts 281°
2026-05-04 19:23 51.45331 11.30313 19243 ft 316 kts 281°
2026-05-04 19:23 51.45856 11.26864 19764 ft 320 kts 281°
2026-05-04 19:23 51.46384 11.23376 20322 ft 323 kts 281°
2026-05-04 19:23 51.46920 11.19828 20901 ft 328 kts 281°
2026-05-04 19:24 51.47454 11.16290 21510 ft 330 kts 281°
2026-05-04 19:24 51.47996 11.12695 22137 ft 331 kts 281°
2026-05-04 19:24 51.48535 11.09103 22788 ft 331 kts 281°
2026-05-04 19:24 51.49043 11.05496 23438 ft 331 kts 278°
2026-05-04 19:25 51.49471 11.01864 24009 ft 331 kts 277°
2026-05-04 19:25 51.49877 10.98217 24581 ft 333 kts 277°
2026-05-04 19:25 51.50278 10.94594 25149 ft 334 kts 277°
2026-05-04 19:25 51.50691 10.90908 25741 ft 335 kts 277°
2026-05-04 19:26 51.51108 10.87221 26334 ft 335 kts 277°
2026-05-04 19:26 51.51526 10.83548 26941 ft 332 kts 277°
2026-05-04 19:26 51.51941 10.79907 27556 ft 329 kts 277°
2026-05-04 19:26 51.52353 10.76290 27981 ft 332 kts 277°
2026-05-04 19:27 51.52766 10.72649 27966 ft 336 kts 277°
2026-05-04 19:27 51.53186 10.68941 27975 ft 338 kts 277°
2026-05-04 19:27 51.53608 10.65206 27981 ft 338 kts 277°
2026-05-04 19:27 51.54044 10.61484 27998 ft 339 kts 278°
2026-05-04 19:28 51.54534 10.57816 27988 ft 339 kts 278°
2026-05-04 19:28 51.55050 10.54107 27984 ft 339 kts 279°
2026-05-04 19:28 51.55570 10.50401 27984 ft 339 kts 279°
2026-05-04 19:28 51.56085 10.46700 27982 ft 339 kts 278°
2026-05-04 19:29 51.56595 10.43011 27993 ft 338 kts 278°
2026-05-04 19:29 51.57096 10.39354 27988 ft 338 kts 278°
2026-05-04 19:29 51.57600 10.35658 28070 ft 335 kts 278°
2026-05-04 19:29 51.58091 10.32051 28671 ft 328 kts 278°
2026-05-04 19:30 51.58575 10.28465 29210 ft 327 kts 278°
2026-05-04 19:30 51.59056 10.24887 29768 ft 326 kts 278°
2026-05-04 19:30 51.59538 10.21292 29979 ft 334 kts 278°
2026-05-04 19:31 51.60513 10.13980 29992 ft 334 kts 277°
2026-05-04 19:31 51.61493 10.06592 30018 ft 348 kts 278°
2026-05-04 19:31 51.62006 10.02694 29996 ft 360 kts 278°
2026-05-04 19:32 51.62526 9.98743 30002 ft 371 kts 278°
2026-05-04 19:32 51.63069 9.94609 30004 ft 382 kts 278°
2026-05-04 19:32 51.63626 9.90374 29999 ft 392 kts 278°
2026-05-04 19:33 51.64777 9.81588 29989 ft 406 kts 278°
2026-05-04 19:33 51.65930 9.72745 29981 ft 405 kts 278°
2026-05-04 19:34 51.67079 9.63871 29982 ft 403 kts 277°
2026-05-04 19:34 51.68203 9.55032 29978 ft 399 kts 276°
2026-05-04 19:34 51.68527 9.50667 29866 ft 384 kts 269°
2026-05-04 19:35 51.68359 9.46459 29739 ft 366 kts 259°
2026-05-04 19:35 51.68002 9.42495 29320 ft 360 kts 259°
2026-05-04 19:35 51.67637 9.38524 28910 ft 355 kts 259°
2026-05-04 19:35 51.67278 9.34603 28467 ft 351 kts 259°
2026-05-04 19:36 51.66926 9.30715 28056 ft 347 kts 259°
2026-05-04 19:36 51.66587 9.26940 27741 ft 342 kts 259°
2026-05-04 19:36 51.66250 9.23165 27428 ft 342 kts 259°
2026-05-04 19:36 51.65897 9.19248 27152 ft 363 kts 259°
2026-05-04 19:37 51.65524 9.15116 26861 ft 381 kts 259°
2026-05-04 19:37 51.65144 9.10879 26541 ft 382 kts 259°
2026-05-04 19:37 51.64764 9.06637 26243 ft 382 kts 259°
2026-05-04 19:37 51.64388 9.02447 25944 ft 381 kts 259°
2026-05-04 19:38 51.64006 8.98211 25645 ft 381 kts 259°
2026-05-04 19:38 51.63622 8.93988 25355 ft 380 kts 259°
2026-05-04 19:38 51.63243 8.89827 25084 ft 379 kts 259°
2026-05-04 19:38 51.62859 8.85630 25027 ft 379 kts 259°
2026-05-04 19:39 51.62479 8.81494 24988 ft 366 kts 259°
2026-05-04 19:39 51.62113 8.77520 24979 ft 350 kts 259°
2026-05-04 19:39 51.61751 8.73725 24971 ft 335 kts 256°
2026-05-04 19:39 51.60922 8.70358 25000 ft 317 kts 237°
2026-05-04 19:40 51.59562 8.67625 24823 ft 310 kts 224°
2026-05-04 19:40 51.57844 8.65584 24649 ft 304 kts 213°
2026-05-04 19:40 51.56051 8.63933 24466 ft 298 kts 211°
2026-05-04 19:40 51.54241 8.62351 24284 ft 292 kts 210°
2026-05-04 19:41 51.52461 8.60806 24100 ft 287 kts 210°
2026-05-04 19:41 51.50718 8.59283 23918 ft 282 kts 210°
2026-05-04 19:41 51.49021 8.57792 23713 ft 273 kts 210°
2026-05-04 19:41 51.47406 8.56365 23513 ft 264 kts 210°
2026-05-04 19:42 51.45818 8.54958 23303 ft 258 kts 210°
2026-05-04 19:42 51.44240 8.53556 23102 ft 260 kts 210°
2026-05-04 19:42 51.42648 8.52140 22918 ft 264 kts 210°
2026-05-04 19:42 51.41033 8.50703 22720 ft 265 kts 210°
2026-05-04 19:43 51.39441 8.49289 22526 ft 264 kts 210°
2026-05-04 19:43 51.37823 8.47853 22134 ft 269 kts 210°
2026-05-04 19:43 51.36185 8.46399 21723 ft 269 kts 210°
2026-05-04 19:43 51.34552 8.44950 21286 ft 266 kts 210°
2026-05-04 19:44 51.32937 8.43521 20891 ft 263 kts 210°
2026-05-04 19:44 51.31361 8.42128 20491 ft 261 kts 210°
2026-05-04 19:44 51.29779 8.40729 20099 ft 258 kts 210°
2026-05-04 19:44 51.28275 8.39181 19695 ft 255 kts 221°
2026-05-04 19:45 51.27069 8.37151 19311 ft 253 kts 233°
2026-05-04 19:45 51.26132 8.34777 18937 ft 251 kts 237°
2026-05-04 19:45 51.25242 8.32369 18520 ft 251 kts 238°
2026-05-04 19:45 51.24348 8.29901 17887 ft 263 kts 238°
2026-05-04 19:46 51.23372 8.27206 16998 ft 304 kts 238°
2026-05-04 19:46 51.22232 8.24069 16233 ft 344 kts 238°
2026-05-04 19:46 51.21029 8.20754 15748 ft 351 kts 239°
2026-05-04 19:46 51.19801 8.17373 15243 ft 351 kts 239°
2026-05-04 19:47 51.18578 8.14010 14756 ft 347 kts 238°
2026-05-04 19:47 51.17367 8.10691 14263 ft 345 kts 238°
2026-05-04 19:47 51.16179 8.07440 13808 ft 343 kts 238°
2026-05-04 19:47 51.14979 8.04161 13278 ft 341 kts 238°
2026-05-04 19:48 51.13786 8.00907 12752 ft 339 kts 238°
2026-05-04 19:48 51.12600 7.97678 12248 ft 336 kts 238°
2026-05-04 19:48 51.11425 7.94482 12061 ft 334 kts 238°
2026-05-04 19:48 51.10255 7.91277 12017 ft 334 kts 238°
2026-05-04 19:49 51.09103 7.88120 11903 ft 335 kts 238°
2026-05-04 19:49 51.07924 7.84897 11368 ft 335 kts 238°
2026-05-04 19:49 51.06659 7.81810 10610 ft 330 kts 227°
2026-05-04 19:49 51.05541 7.80200 10144 ft 327 kts 215°
2026-05-04 19:50 51.03591 7.78358 9413 ft 326 kts 208°
2026-05-04 19:50 51.01575 7.76682 8731 ft 326 kts 207°
2026-05-04 19:50 50.99561 7.75021 8118 ft 325 kts 207°
2026-05-04 19:50 50.97565 7.73354 7519 ft 323 kts 208°
2026-05-04 19:51 50.95592 7.71685 7175 ft 315 kts 208°
2026-05-04 19:51 50.93711 7.70087 7050 ft 306 kts 208°
2026-05-04 19:51 50.91886 7.68535 7007 ft 289 kts 208°
2026-05-04 19:51 50.90141 7.67050 6718 ft 280 kts 208°
2026-05-04 19:52 50.88455 7.65615 6310 ft 270 kts 208°
2026-05-04 19:52 50.86819 7.64225 5871 ft 263 kts 208°
2026-05-04 19:52 50.85215 7.62863 5370 ft 260 kts 207°
2026-05-04 19:52 50.83642 7.61528 5077 ft 251 kts 208°
2026-05-04 19:53 50.82126 7.60243 5027 ft 249 kts 208°
2026-05-04 19:53 50.80595 7.58948 5007 ft 248 kts 208°
2026-05-04 19:53 50.79062 7.57650 4873 ft 253 kts 208°
2026-05-04 19:53 50.77489 7.56320 4617 ft 257 kts 208°
2026-05-04 19:54 50.75917 7.54992 4358 ft 255 kts 208°
2026-05-04 19:54 50.74361 7.53679 4108 ft 251 kts 208°
2026-05-04 19:54 50.72869 7.52403 4014 ft 243 kts 212°
2026-05-04 19:54 50.71739 7.50518 3994 ft 236 kts 243°
2026-05-04 19:55 50.71236 7.48089 4004 ft 231 kts 258°
2026-05-04 19:55 50.71021 7.45643 3984 ft 219 kts 259°
2026-05-04 19:55 50.70820 7.43303 3786 ft 216 kts 259°
2026-05-04 19:55 50.70612 7.40965 3591 ft 213 kts 259°
2026-05-04 19:56 50.70631 7.38652 3436 ft 212 kts 288°
2026-05-04 19:56 50.71496 7.36853 3337 ft 211 kts 318°
2026-05-04 19:56 50.72611 7.35342 3257 ft 212 kts 314°
2026-05-04 19:56 50.73678 7.33743 3143 ft 210 kts 315°
2026-05-04 19:57 50.74749 7.32180 3039 ft 210 kts 315°
2026-05-04 19:57 50.75838 7.30602 2872 ft 215 kts 315°
2026-05-04 19:57 50.76949 7.28990 2582 ft 216 kts 316°
2026-05-04 19:57 50.78059 7.27381 2300 ft 214 kts 316°
2026-05-04 19:58 50.79145 7.25803 2012 ft 209 kts 316°
2026-05-04 19:58 50.80194 7.24286 1736 ft 199 kts 317°
2026-05-04 19:58 50.81165 7.22878 1486 ft 184 kts 317°
2026-05-04 19:58 50.82070 7.21565 1268 ft 170 kts 317°
2026-05-04 19:59 50.82910 7.20348 1044 ft 159 kts 318°
2026-05-04 19:59 50.83715 7.19181 846 ft 156 kts 318°
2026-05-04 19:59 50.84498 7.18032 782 ft 155 kts 317°
2026-05-04 19:59 50.85301 7.16885 455 ft 157 kts 319°
2026-05-04 20:00 50.86086 7.15758 291 ft 142 kts 318°
2026-05-04 20:00 50.86720 7.14799 257 ft 105 kts 317°
2026-05-04 20:00 50.87156 7.14188 257 ft 62 kts 317°
2026-05-04 20:00 50.87307 7.13821 249 ft 23 kts 281°
2026-05-04 20:01 50.87326 7.13658 246 ft 7 kts 280°
2026-05-04 20:01 50.87341 7.13522 238 ft 14 kts 280°
2026-05-04 20:01 50.87342 7.13515 238 ft 0 kts 280°
2026-05-04 20:02 50.87347 7.13466 236 ft 14 kts 277°
2026-05-04 20:02 50.87376 7.13279 233 ft 20 kts 304°
2026-05-04 20:02 50.87473 7.13121 232 ft 20 kts 316°
2026-05-04 20:02 50.87574 7.12978 229 ft 19 kts 317°
2026-05-04 20:03 50.87654 7.12862 230 ft 5 kts 317°
2026-05-04 20:03 50.87679 7.12827 230 ft 5 kts 317°
2026-05-04 20:03 50.87684 7.12780 229 ft 5 kts 249°
2026-05-04 20:03 50.87664 7.12739 230 ft 5 kts 227°
2026-05-04 20:04 50.87641 7.12698 229 ft 5 kts 227°
2026-05-04 20:04 50.87639 7.12695 229 ft 0 kts 227°